CZ-11 R/B (52393 NORAD) Tracking and Keplerian Element Data

This shows tracking and keplerian element data for the satellite.

Feedback or suggestion? Click here.




ElementValue
Catalog52393
NameCZ-11 R/B
Epoch Orbit429
Epoch Day147.30590481
Epoch Year2022
RAAN236.968
Inclination97.2763
Eccentricity0.0126408
Argument of Perigee224.6148
Mean Anonmoly182.3232
Mean Motion16.17509616
Decay Rate0.03377922
L11 52393U 22046F 22147.30590481 .03377922 22458-5 23095-3 0 9993
L22 52393 97.2763 236.9680 0126408 224.6148 182.3232 16.17509616 4298

Live tracking and technical data element details for CZ-11 R/B (NORAD 52393). CZ-11 R/B can be tracked NOW for your location showing map with azimuth and elevation plus other details from your city location.

Track the satellite on the map from your city or location and see movement details for azimuth, elevation, latitude, longitude, range, height, and movement on the map or in text.







IsCatalogInMostPopularTable: catalog: 52393, numindb: 8
Update: records affected: 1



GetName: 52393 CZ-11 R/B

Hit Count: updated at: Mon, 27 Jun 2022 04:57:50 GMT